DW1902 Weather Reports


Display with metric or nautical units.
time (UTC)temp
F
wind
direction
speed
MPH
gust
MPH
rain 1hr
in
rain 24hr
in
rain mn
in
humidity
%
barometer
mb
20190326035705 27 270 2.0 6.0 0.00 0.00 0.00 71 1017.7
20190326035205 27 270 4.0 6.0 0.00 0.00 0.00 72 1017.7
20190326034705 27 269 3.0 6.0 0.00 0.00 0.00 71 1017.7
20190326034205 28 267 1.0 4.0 0.00 0.00 0.00 73 1017.8
20190326033705 28 267 1.0 4.0 0.00 0.00 0.00 70 1017.9
20190326033206 27 267 1.0 6.0 0.00 0.00 0.00 69 1017.8
20190326032705 27 267 1.0 7.0 0.00 0.00 0.00 70 1017.7
20190326032205 27 267 3.0 7.0 0.00 0.00 0.00 71 1017.6
20190326031705 27 267 3.0 7.0 0.00 0.00 0.00 70 1017.5
20190326031206 28 265 1.0 4.0 0.00 0.00 0.00 72 1017.5
20190326030705 28 264 0.0 3.0 0.00 0.00 0.00 70 1017.5
20190326030206 28 264 1.0 3.0 0.00 0.00 0.00 69 1017.4
20190326025705 28 264 2.0 4.0 0.00 0.00 0.00 70 1017.3
20190326025205 28 264 2.0 4.0 0.00 0.00 0.00 66 1017.2
20190326024705 29 264 1.0 4.0 0.00 0.00 0.00 65 1017.3
20190326024205 29 264 1.0 4.0 0.00 0.00 0.00 65 1017.3
20190326023705 28 264 1.0 4.0 0.00 0.00 0.00 66 1017.4
20190326023205 28 264 1.0 4.0 0.00 0.00 0.00 65 1017.4
20190326022705 28 264 1.0 4.0 0.00 0.00 0.00 65 1017.4
20190326022205 28 264 1.0 3.0 0.00 0.00 0.00 64 1017.5
20190326021705 28 264 0.0 2.0 0.00 0.00 0.00 66 1017.4
20190326021205 28 264 0.0 3.0 0.00 0.00 0.00 68 1017.3
20190326020705 28 264 1.0 4.0 0.00 0.00 0.00 66 1017.3
20190326020205 28 264 1.0 4.0 0.00 0.00 0.00 65 1017.2
20190326015705 28 264 2.0 4.0 0.00 0.00 0.00 66 1017.4
20190326015205 28 264 2.0 4.0 0.00 0.00 0.00 65 1017.4
20190326014705 28 264 1.0 4.0 0.00 0.00 0.00 68 1017.4
20190326014205 28 264 0.0 2.0 0.00 0.00 0.00 67 1017.4
20190326013705 28 264 0.0 1.0 0.00 0.00 0.00 66 1017.4
20190326013206 29 264 0.0 2.0 0.00 0.00 0.00 64 1017.4
20190326012705 29 264 0.0 2.0 0.00 0.00 0.00 65 1017.4
20190326012206 29 264 0.0 2.0 0.00 0.00 0.00 63 1017.3
20190326011705 29 264 0.0 4.0 0.00 0.00 0.00 61 1017.3
20190326011206 29 264 0.0 4.0 0.00 0.00 0.00 61 1017.3
20190326010705 29 264 0.0 3.0 0.00 0.00 0.00 60 1017.2
20190326010205 29 264 1.0 4.0 0.00 0.00 0.00 60 1017.2
20190326005705 29 264 1.0 4.0 0.00 0.00 0.00 59 1017.0
20190326005205 29 264 1.0 4.0 0.00 0.00 0.00 59 1017.0
20190326004705 29 264 1.0 4.0 0.00 0.00 0.00 59 1017.0
20190326004207 30 264 1.0 4.0 0.00 0.00 0.00 59 1016.9
20190326003705 30 264 1.0 4.0 0.00 0.00 0.00 60 1016.7
20190326003206 30 264 1.0 4.0 0.00 0.00 0.00 62 1016.7
20190326002705 31 264 0.0 2.0 0.00 0.00 0.00 59 1016.6
20190326002205 31 264 0.0 6.0 0.00 0.00 0.00 55 1016.3
20190326001705 31 264 1.0 6.0 0.00 0.00 0.00 53 1016.2
20190326001206 31 264 2.0 6.0 0.00 0.00 0.00 53 1016.1
20190326000705 31 264 1.0 4.0 0.00 0.00 0.00 52 1016.1
20190326000219 32 264 1.0 7.0 0.00 0.00 0.00 51 1016.0
20190325235705 32 264 2.0 7.0 0.00 0.00 0.00 51 1015.9
20190325235205 32 264 3.0 9.0 0.00 0.00 0.00 51 1015.8
20190325234705 32 265 4.0 9.0 0.00 0.00 0.00 49 1015.6
20190325234205 33 267 5.0 9.0 0.00 0.00 0.00 48 1015.6
20190325233706 33 268 5.0 10.0 0.00 0.00 0.00 48 1015.5
20190325233206 33 267 6.0 12.0 0.00 0.00 0.00 48 1015.4
20190325232705 33 278 6.0 12.0 0.00 0.00 0.00 47 1015.2
20190325232205 33 268 7.0 12.0 0.00 0.00 0.00 48 1015.2
20190325231705 34 263 8.0 11.0 0.00 0.00 0.00 48 1015.1
20190325231206 34 276 7.0 12.0 0.00 0.00 0.00 47 1015.0
20190325230705 34 265 7.0 14.0 0.00 0.00 0.00 47 1014.9
20190325230205 34 282 8.0 15.0 0.00 0.00 0.00 47 1014.9
20190325225704 35 275 8.0 15.0 0.00 0.00 0.00 47 1014.9
20190325225205 35 279 8.0 15.0 0.00 0.00 0.00 46 1014.8
20190325224705 35 269 8.0 14.0 0.00 0.00 0.00 45 1014.7
20190325224205 35 275 8.0 15.0 0.00 0.00 0.00 45 1014.7
20190325223705 36 250 9.0 17.0 0.00 0.00 0.00 46 1014.7
20190325223205 36 267 10.0 17.0 0.00 0.00 0.00 44 1014.5
20190325222705 36 259 9.0 18.0 0.00 0.00 0.00 43 1014.4
20190325222205 37 263 9.0 18.0 0.00 0.00 0.00 43 1014.3
20190325221705 37 279 10.0 18.0 0.00 0.00 0.00 43 1014.3
20190325221206 37 270 10.0 16.0 0.00 0.00 0.00 41 1014.2
20190325220705 37 265 11.0 18.0 0.00 0.00 0.00 42 1014.0
20190325220205 38 288 11.0 20.0 0.00 0.00 0.00 40 1014.0
20190325215705 38 294 12.0 20.0 0.00 0.00 0.00 41 1014.0
20190325215205 38 286 13.0 20.0 0.00 0.00 0.00 39 1013.9
20190325214705 38 249 12.0 20.0 0.00 0.00 0.00 38 1013.8
20190325214205 38 276 13.0 22.0 0.00 0.00 0.00 39 1013.7
20190325213705 39 288 14.0 22.0 0.00 0.00 0.00 38 1013.5
20190325213205 39 299 14.0 22.0 0.00 0.00 0.00 38 1013.4
20190325212705 39 294 14.0 21.0 0.00 0.00 0.00 36 1013.5
20190325212206 39 306 13.0 24.0 0.00 0.00 0.00 36 1013.3
20190325211705 40 282 14.0 24.0 0.00 0.00 0.00 37 1013.4
20190325211205 40 289 12.0 25.0 0.00 0.00 0.00 37 1013.3
20190325210705 40 298 13.0 27.0 0.00 0.00 0.00 36 1013.3
20190325210206 40 256 16.0 27.0 0.00 0.00 0.00 36 1013.3
20190325205705 40 309 17.0 27.0 0.00 0.00 0.00 34 1013.1
20190325205205 40 283 13.0 26.0 0.00 0.00 0.00 35 1013.2
20190325204706 41 281 11.0 26.0 0.00 0.00 0.00 34 1013.1
20190325204205 41 229 13.0 27.0 0.00 0.00 0.00 34 1013.1
20190325203706 41 252 15.0 27.0 0.00 0.00 0.00 35 1013.1
20190325203206 41 278 15.0 23.0 0.00 0.00 0.00 34 1013.1
20190325202705 41 277 15.0 25.0 0.00 0.00 0.00 32 1013.0
20190325202205 41 292 16.0 25.0 0.00 0.00 0.00 33 1013.0
20190325201705 42 260 16.0 24.0 0.00 0.00 0.00 32 1012.9
20190325201206 41 289 17.0 25.0 0.00 0.00 0.00 31 1012.9
20190325200705 42 271 16.0 25.0 0.00 0.00 0.00 32 1012.9
20190325200206 42 273 14.0 23.0 0.00 0.00 0.00 33 1013.0
20190325195705 43 213 12.0 21.0 0.00 0.00 0.00 33 1012.7
20190325195205 43 252 13.0 21.0 0.00 0.00 0.00 35 1012.7
20190325194705 43 286 12.0 27.0 0.00 0.00 0.00 37 1012.6
20190325194205 43 263 13.0 27.0 0.00 0.00 0.00 36 1012.6
20190325193705 43 246 13.0 27.0 0.00 0.00 0.00 31 1012.6
20190325193205 43 273 12.0 23.0 0.00 0.00 0.00 35 1012.5
20190325192704 44 260 12.0 23.0 0.00 0.00 0.00 34 1012.5
20190325192205 44 247 9.0 21.0 0.00 0.00 0.00 34 1012.5
20190325191705 44 221 9.0 22.0 0.00 0.00 0.00 31 1012.4
20190325191206 43 225 12.0 23.0 0.00 0.00 0.00 34 1012.5
20190325190705 43 284 14.0 23.0 0.00 0.00 0.00 34 1012.5
20190325190205 43 272 15.0 23.0 0.00 0.00 0.00 36 1012.4
20190325185705 43 266 11.0 20.0 0.00 0.00 0.00 35 1012.5
20190325185205 44 292 11.0 24.0 0.00 0.00 0.00 36 1012.5
20190325184706 43 252 13.0 24.0 0.00 0.00 0.00 36 1012.4
20190325184205 44 284 11.0 24.0 0.00 0.00 0.00 37 1012.4
20190325183705 43 257 11.0 23.0 0.00 0.00 0.00 37 1012.3
20190325183205 43 292 13.0 23.0 0.00 0.00 0.00 40 1012.4
20190325182705 43 279 12.0 23.0 0.00 0.00 0.00 38 1012.5
20190325182205 44 298 10.0 21.0 0.00 0.00 0.00 39 1012.4
20190325181706 43 265 11.0 24.0 0.00 0.00 0.00 37 1012.4
20190325181205 43 261 13.0 24.0 0.00 0.00 0.00 39 1012.5
20190325180705 42 300 13.0 24.0 0.00 0.00 0.00 38 1012.5
20190325180206 43 284 13.0 23.0 0.00 0.00 0.00 38 1012.6
20190325175705 42 232 13.0 23.0 0.00 0.00 0.00 38 1012.6
20190325175205 42 258 15.0 26.0 0.00 0.00 0.00 40 1012.7
20190325174705 42 281 16.0 26.0 0.00 0.00 0.00 38 1012.7
20190325174205 42 281 16.0 26.0 0.00 0.00 0.00 40 1012.7
20190325173706 42 286 15.0 25.0 0.00 0.00 0.00 39 1012.8
20190325173205 42 238 13.0 24.0 0.00 0.00 0.00 38 1012.8
20190325172705 42 315 14.0 23.0 0.00 0.00 0.00 39 1012.8
20190325172205 42 265 13.0 29.0 0.00 0.00 0.00 38 1012.8
20190325171705 43 304 13.0 29.0 0.00 0.00 0.00 40 1012.8
20190325171205 42 277 13.0 22.0 0.00 0.00 0.00 40 1012.8
20190325170705 42 261 12.0 22.0 0.00 0.00 0.00 42 1012.8
20190325170206 42 205 14.0 22.0 0.00 0.00 0.00 45 1012.7
20190325165705 42 292 12.0 23.0 0.00 0.00 0.00 43 1012.8
20190325165206 42 294 12.0 23.0 0.00 0.00 0.00 41 1012.7
20190325164705 42 223 13.0 21.0 0.00 0.00 0.00 43 1012.8
20190325164205 42 271 12.0 21.0 0.00 0.00 0.00 44 1012.8
20190325163705 43 248 10.0 19.0 0.00 0.00 0.00 44 1012.7
20190325163205 42 277 10.0 20.0 0.00 0.00 0.00 45 1012.8
20190325162705 42 278 12.0 20.0 0.00 0.00 0.00 47 1012.8
20190325162205 42 262 10.0 20.0 0.00 0.00 0.00 46 1012.8
20190325161705 42 249 11.0 22.0 0.00 0.00 0.00 47 1012.7
20190325161221 41 279 12.0 22.0 0.00 0.00 0.00 48 1012.7
20190325160705 42 284 9.0 22.0 0.00 0.00 0.00 47 1012.9
20190325160205 42 246 8.0 20.0 0.00 0.00 0.00 52 1012.7
20190325155704 42 244 10.0 20.0 0.00 0.00 0.00 52 1012.7
20190325155205 42 271 12.0 20.0 0.00 0.00 0.00 50 1012.8
20190325154707 41 280 13.0 20.0 0.00 0.00 0.00 52 1012.7
20190325154205 41 287 13.0 22.0 0.00 0.00 0.00 52 1012.7
20190325153707 40 277 13.0 22.0 0.00 0.00 0.00 53 1012.7
20190325153206 40 273 14.0 20.0 0.00 0.00 0.00 53 1012.7
20190325152704 40 288 13.0 20.0 0.00 0.00 0.00 54 1012.8
20190325152205 40 286 11.0 19.0 0.00 0.00 0.00 55 1012.7
20190325151705 40 283 10.0 19.0 0.00 0.00 0.00 56 1012.6
20190325151208 39 292 12.0 24.0 0.00 0.00 0.00 57 1012.7
20190325150705 39 314 15.0 24.0 0.00 0.00 0.00 56 1012.8
20190325150205 39 307 13.0 18.0 0.00 0.00 0.00 55 1012.9
20190325145708 39 297 11.0 18.0 0.00 0.00 0.00 57 1012.8
20190325145206 39 302 11.0 21.0 0.00 0.00 0.00 60 1012.8
20190325144707 38 307 12.0 21.0 0.00 0.00 0.00 60 1012.8
20190325144207 38 288 14.0 21.0 0.00 0.00 0.00 61 1012.9
20190325143705 38 290 14.0 23.0 0.00 0.00 0.00 63 1013.0
20190325143206 38 292 15.0 23.0 0.00 0.00 0.00 62 1012.9
20190325142705 38 292 14.0 23.0 0.00 0.00 0.00 62 1012.8
20190325142205 38 300 13.0 22.0 0.00 0.00 0.00 62 1012.9
20190325141706 38 306 13.0 20.0 0.00 0.00 0.00 63 1012.9
20190325141207 38 321 13.0 20.0 0.00 0.00 0.00 64 1013.0
20190325140706 38 313 12.0 19.0 0.00 0.00 0.00 63 1013.0
20190325140206 38 288 12.0 19.0 0.00 0.00 0.00 66 1012.8
20190325135706 38 293 12.0 20.0 0.00 0.00 0.00 65 1012.8
20190325135205 38 279 12.0 20.0 0.00 0.00 0.00 69 1012.8
20190325134706 37 313 12.0 20.0 0.00 0.00 0.00 72 1012.8
20190325134205 37 289 12.0 20.0 0.00 0.00 0.00 74 1012.8
20190325133706 38 286 11.0 22.0 0.00 0.00 0.00 77 1012.7
20190325133207 38 279 13.0 22.0 0.00 0.00 0.00 79 1012.6
20190325132705 37 300 14.0 22.0 0.00 0.00 0.00 80 1012.7
20190325132207 37 288 13.0 21.0 0.00 0.00 0.00 80 1012.7
20190325131707 37 305 13.0 21.0 0.00 0.00 0.00 81 1012.6
20190325131207 36 279 14.0 22.0 0.00 0.00 0.00 82 1012.7
20190325130707 36 306 12.0 22.0 0.00 0.00 0.00 82 1012.7
20190325130206 36 302 10.0 16.0 0.00 0.00 0.00 84 1012.7
20190325125707 36 303 10.0 16.0 0.00 0.00 0.00 84 1012.7
20190325125206 35 303 11.0 16.0 0.00 0.00 0.00 85 1012.6
20190325124706 35 280 11.0 17.0 0.00 0.00 0.00 86 1012.6
20190325124207 35 297 11.0 17.0 0.00 0.00 0.00 86 1012.6
20190325123706 35 308 11.0 17.0 0.00 0.00 0.00 87 1012.6
20190325123206 35 306 11.0 17.0 0.00 0.00 0.00 88 1012.5
20190325122707 34 287 10.0 17.0 0.00 0.00 0.00 89 1012.4
20190325122206 34 302 10.0 17.0 0.00 0.00 0.00 90 1012.3
20190325121706 33 288 10.0 17.0 0.00 0.00 0.00 91 1012.3
20190325121206 33 281 9.0 15.0 0.00 0.00 0.00 92 1012.2
20190325120706 33 309 8.0 15.0 0.00 0.00 0.00 93 1012.0
20190325120206 32 296 8.0 13.0 0.00 0.00 0.00 93 1011.9
20190325115706 32 309 8.0 14.0 0.00 0.00 0.00 94 1011.9
20190325115205 32 302 8.0 14.0 0.00 0.00 0.00 95 1011.9
20190325114706 32 310 9.0 14.0 0.00 0.00 0.00 96 1011.9
20190325114206 32 308 8.0 10.0 0.00 0.00 0.00 97 1012.0
20190325113706 31 298 6.0 8.0 0.00 0.00 0.00 98 1012.0
20190325113205 31 298 5.0 9.0 0.00 0.00 0.00 98 1011.8
20190325112705 30 300 5.0 9.0 0.00 0.00 0.00 99 1011.9
20190325112205 30 298 5.0 8.0 0.00 0.00 0.00 99 1012.0
20190325111705 30 294 4.0 8.0 0.00 0.00 0.00 99 1012.1
20190325111205 29 292 5.0 8.0 0.00 0.00 0.00 99 1012.1
20190325110705 29 292 5.0 8.0 0.00 0.00 0.00 99 1012.2
20190325110206 28 287 5.0 7.0 0.00 0.00 0.00 99 1012.2
20190325105705 28 285 4.0 6.0 0.00 0.00 0.00 99 1012.1
20190325105205 28 284 3.0 4.0 0.00 0.00 0.00 99 1012.0
20190325104705 27 284 2.0 4.0 0.00 0.00 0.00 99 1011.9
20190325104206 27 284 2.0 4.0 0.00 0.00 0.00 99 1011.8
20190325103705 27 284 2.0 4.0 0.00 0.00 0.00 99 1011.7
20190325103206 27 284 2.0 3.0 0.00 0.00 0.00 99 1011.8
20190325102706 27 284 2.0 3.0 0.00 0.00 0.00 99 1011.7
20190325102205 27 284 1.0 3.0 0.00 0.00 0.00 99 1011.6
20190325101705 27 284 1.0 3.0 0.00 0.00 0.00 99 1011.6
20190325101205 27 284 1.0 4.0 0.00 0.00 0.00 99 1011.6
20190325100705 27 284 1.0 4.0 0.00 0.00 0.00 99 1011.7
20190325100205 27 284 2.0 4.0 0.00 0.00 0.00 99 1011.7
20190325095705 27 284 2.0 4.0 0.00 0.00 0.00 99 1011.6
20190325095205 27 284 2.0 4.0 0.00 0.00 0.00 99 1011.7
20190325094706 27 284 2.0 4.0 0.00 0.00 0.00 99 1011.7
20190325094206 27 284 2.0 4.0 0.00 0.00 0.00 99 1011.6
20190325093705 26 284 2.0 4.0 0.00 0.00 0.00 98 1011.6
20190325093206 26 284 2.0 3.0 0.00 0.00 0.00 98 1011.5
20190325092705 26 284 1.0 3.0 0.00 0.00 0.00 98 1011.4
20190325092206 26 284 0.0 2.0 0.00 0.00 0.00 98 1011.2
20190325091706 26 284 0.0 2.0 0.00 0.00 0.00 98 1011.2
20190325091205 26 284 0.0 2.0 0.00 0.00 0.00 98 1011.2
20190325090704 26 284 0.0 2.0 0.00 0.00 0.00 98 1011.3
20190325090205 26 284 0.0 2.0 0.00 0.00 0.00 98 1011.4
20190325085705 26 284 0.0 2.0 0.00 0.00 0.00 98 1011.4
20190325085205 26 284 0.0 0.0 0.00 0.00 0.00 97 1011.3
20190325084705 26 284 0.0 0.0 0.00 0.00 0.00 98 1011.3
20190325084205 26 284 0.0 0.0 0.00 0.00 0.00 97 1011.3
20190325083705 26 284 0.0 0.0 0.00 0.00 0.00 97 1011.2
20190325083205 26 284 0.0 0.0 0.00 0.00 0.00 97 1011.2
20190325082705 26 284 0.0 0.0 0.00 0.00 0.00 97 1011.1
20190325082205 26 284 0.0 0.0 0.00 0.00 0.00 97 1011.2
20190325081705 26 284 0.0 0.0 0.00 0.00 0.00 97 1011.3
20190325081205 26 284 0.0 0.0 0.00 0.00 0.00 97 1011.3
20190325080705 26 284 0.0 0.0 0.00 0.00 0.00 97 1011.3
20190325080206 26 284 0.0 0.0 0.00 0.00 0.00 97 1011.3
20190325075706 27 284 0.0 0.0 0.00 0.00 0.00 97 1011.4
20190325075205 27 284 0.0 0.0 0.00 0.00 0.00 97 1011.3
20190325074705 27 284 0.0 0.0 0.00 0.00 0.00 97 1011.4
20190325074205 27 284 0.0 0.0 0.00 0.00 0.00 97 1011.4
20190325073705 27 284 0.0 0.0 0.00 0.00 0.00 96 1011.3
20190325073205 27 284 0.0 0.0 0.00 0.00 0.00 96 1011.3
20190325072705 27 284 0.0 0.0 0.00 0.00 0.00 96 1011.3
20190325072205 27 284 0.0 0.0 0.00 0.00 0.00 96 1011.3
20190325071705 27 284 0.0 0.0 0.00 0.00 0.00 96 1011.2
20190325071205 27 284 0.0 0.0 0.00 0.00 0.00 96 1011.3
20190325070705 27 284 0.0 0.0 0.00 0.00 0.00 96 1011.3
20190325070205 27 284 0.0 0.0 0.00 0.00 0.00 96 1011.3
20190325065705 27 284 0.0 1.0 0.00 0.00 0.00 96 1011.3
20190325065205 28 284 0.0 1.0 0.00 0.00 0.00 95 1011.2
20190325064705 28 284 0.0 1.0 0.00 0.00 0.00 95 1011.2
20190325064205 28 284 0.0 0.0 0.00 0.00 0.00 95 1011.1
20190325063705 28 284 0.0 0.0 0.00 0.00 0.00 95 1011.1
20190325063205 28 284 0.0 0.0 0.00 0.00 0.00 94 1011.2
20190325062705 28 284 0.0 0.0 0.00 0.00 0.00 94 1011.4
20190325062205 28 284 0.0 0.0 0.00 0.00 0.00 94 1011.4
20190325061704 29 284 0.0 0.0 0.00 0.00 0.00 94 1011.4
20190325061206 29 284 0.0 0.0 0.00 0.00 0.00 94 1011.3
20190325060705 29 284 0.0 0.0 0.00 0.00 0.00 94 1011.4
20190325060206 29 284 0.0 0.0 0.00 0.00 0.00 94 1011.5
20190325055705 29 284 0.0 0.0 0.00 0.00 0.00 94 1011.5
20190325055205 29 284 0.0 0.0 0.00 0.00 0.00 93 1011.5
20190325054704 29 284 0.0 0.0 0.00 0.00 0.00 94 1011.7
20190325054205 29 284 0.0 0.0 0.00 0.00 0.00 93 1011.8
20190325053705 30 284 0.0 0.0 0.00 0.00 0.00 93 1011.9
20190325053206 30 284 0.0 0.0 0.00 0.00 0.00 93 1011.9
20190325052705 30 284 0.0 0.0 0.00 0.00 0.00 93 1011.8
20190325052205 30 284 0.0 0.0 0.00 0.00 0.00 93 1011.9
20190325051705 30 284 0.0 0.0 0.00 0.00 0.00 93 1011.9
20190325051205 30 284 0.0 0.0 0.00 0.00 0.00 93 1011.9
20190325050704 30 284 0.0 0.0 0.00 0.00 0.00 93 1011.8
20190325050205 30 284 0.0 0.0 0.00 0.00 0.00 93 1012.0
20190325045705 30 284 0.0 1.0 0.00 0.00 0.00 93 1012.2
20190325045205 30 284 0.0 2.0 0.00 0.00 0.00 93 1012.2
20190325044705 30 284 0.0 2.0 0.00 0.00 0.00 92 1012.4
20190325044205 30 284 0.0 2.0 0.00 0.00 0.00 92 1012.4
20190325043705 31 284 0.0 2.0 0.00 0.00 0.00 91 1012.4
20190325043205 31 284 0.0 2.0 0.00 0.00 0.00 91 1012.4
20190325042705 31 284 0.0 1.0 0.00 0.00 0.00 90 1012.5
20190325042205 31 284 0.0 1.0 0.00 0.00 0.00 90 1012.5
20190325041705 31 284 0.0 1.0 0.00 0.00 0.00 89 1012.6
20190325041205 32 284 0.0 1.0 0.00 0.00 0.00 88 1012.6
20190325040704 32 284 0.0 3.0 0.00 0.00 0.00 88 1012.5
20190325040207 32 284 0.0 3.0 0.00 0.00 0.00 87 1012.7